FW0786 Weather Reports


Display with metric or nautical units.
time (UTC)temp
F
wind
direction
speed
MPH
gust
MPH
rain 1hr
in
rain 24hr
in
rain mn
in
humidity
%
barometer
mb
20260507190405 56 5 5.0 14.0 0.00 0.00 0.00 38 1009.5
20260507185905 56 355 4.0 14.0 0.00 0.00 0.00 36 1009.6
20260507184902 56 355 5.0 15.0 0.00 0.00 0.00 34 1009.6
20260507184403 57 221 5.0 18.0 0.00 0.00 0.00 35 1009.5
20260507183403 57 292 4.0 13.0 0.00 0.00 0.00 35 1009.6
20260507182402 56 298 6.0 19.0 0.00 0.00 0.00 36 1009.6
20260507181402 55 314 6.0 19.0 0.00 0.00 0.00 36 1009.6
20260507175901 55 228 5.0 12.0 0.00 0.00 0.00 40 1009.7
20260507175401 55 328 6.0 17.0 0.00 0.00 0.00 36 1009.7
20260507173900 56 273 4.0 15.0 0.00 0.00 0.00 37 1009.9
20260507173400 57 355 5.0 11.0 0.00 0.00 0.00 38 1009.7
20260507172900 56 317 5.0 10.0 0.00 0.00 0.00 37 1009.8
20260507172400 56 323 5.0 15.0 0.00 0.00 0.00 37 1009.7
20260507171900 56 276 7.0 16.0 0.00 0.00 0.00 37 1009.8
20260507171359 56 298 7.0 16.0 0.00 0.00 0.00 37 1010.0
20260507170900 56 11 6.0 15.0 0.00 0.00 0.00 37 1010.2
20260507170400 55 222 6.0 17.0 0.00 0.00 0.00 39 1010.2
20260507165859 55 349 5.0 17.0 0.00 0.00 0.00 37 1010.2
20260507165401 55 254 5.0 12.0 0.00 0.00 0.00 41 1010.2
20260507164900 54 312 7.0 18.0 0.00 0.00 0.00 40 1010.2
20260507164401 54 330 8.0 18.0 0.00 0.00 0.00 40 1010.3
20260507163900 54 238 9.0 18.0 0.00 0.00 0.00 38 1010.4
20260507163401 53 257 8.0 19.0 0.00 0.00 0.00 38 1010.7
20260507162859 54 350 6.0 19.0 0.00 0.00 0.00 40 1010.7
20260507162401 54 218 5.0 12.0 0.00 0.00 0.00 41 1010.5
20260507161858 54 261 4.0 13.0 0.00 0.00 0.00 45 1010.6
20260507161358 54 268 5.0 13.0 0.00 0.00 0.00 42 1010.7
20260507160359 53 277 5.0 13.0 0.00 0.00 0.00 45 1010.5
20260507155858 53 350 5.0 13.0 0.00 0.00 0.00 46 1010.6
20260507155357 53 42 6.0 12.0 0.00 0.00 0.00 45 1010.6
20260507154856 52 5 7.0 12.0 0.00 0.01 0.00 46 1011.0
20260507154356 52 346 6.0 14.0 0.00 0.01 0.00 45 1011.0
20260507153856 52 343 6.0 14.0 0.00 0.01 0.00 46 1010.9
20260507153355 52 200 6.0 14.0 0.00 0.02 0.00 49 1010.9
20260507152354 52 281 5.0 17.0 0.00 0.02 0.00 49 1011.0
20260507151354 51 239 7.0 14.0 0.00 0.02 0.00 53 1011.0
20260507150851 52 338 5.0 14.0 0.00 0.02 0.00 49 1011.2
20260507150352 52 355 4.0 13.0 0.00 0.02 0.00 52 1011.0
20260507145349 51 292 4.0 12.0 0.00 0.02 0.00 57 1010.7
20260507144849 51 337 4.0 10.0 0.00 0.02 0.00 56 1011.0
20260507143850 51 323 3.0 13.0 0.00 0.02 0.00 62 1011.0
20260507143349 50 21 3.0 13.0 0.00 0.02 0.00 60 1011.1
20260507142850 50 233 3.0 8.0 0.00 0.02 0.00 63 1011.3
20260507142349 50 350 3.0 8.0 0.00 0.02 0.00 62 1011.2
20260507141849 50 239 3.0 8.0 0.00 0.02 0.00 67 1011.4
20260507140850 50 265 2.0 8.0 0.00 0.02 0.00 68 1011.3
20260507140349 50 296 3.0 10.0 0.00 0.02 0.00 69 1011.3
20260507135849 49 355 3.0 10.0 0.00 0.02 0.00 70 1011.5
20260507134850 48 274 3.0 7.0 0.00 0.02 0.00 74 1011.4
20260507134350 48 163 3.0 8.0 0.00 0.02 0.00 76 1011.3
20260507133850 47 275 3.0 8.0 0.00 0.02 0.00 80 1011.4
20260507133349 47 338 3.0 9.0 0.00 0.02 0.00 84 1011.3
20260507131850 45 351 2.0 7.0 0.00 0.03 0.00 93 1011.3
20260507130849 44 84 2.0 6.0 0.00 0.04 0.00 93 1011.3
20260507130349 44 198 2.0 5.0 0.00 0.04 0.00 95 1011.3
20260507125849 44 41 2.0 5.0 0.00 0.04 0.00 96 1011.5
20260507125349 43 320 2.0 4.0 0.00 0.04 0.00 95 1011.6
20260507124847 43 319 1.0 4.0 0.00 0.04 0.00 95 1011.5
20260507124347 43 300 1.0 3.0 0.00 0.04 0.00 95 1011.4
20260507123847 43 300 1.0 3.0 0.00 0.04 0.00 95 1011.2
20260507123347 43 300 1.0 3.0 0.00 0.04 0.00 96 1011.2
20260507122844 43 300 1.0 3.0 0.00 0.04 0.00 96 1011.1
20260507122343 43 300 1.0 3.0 0.00 0.04 0.00 95 1011.3
20260507121845 43 334 1.0 4.0 0.00 0.04 0.00 95 1011.3
20260507121344 43 335 2.0 5.0 0.00 0.04 0.00 95 1011.3
20260507120843 43 315 2.0 5.0 0.00 0.04 0.00 95 1011.3
20260507120343 42 307 1.0 3.0 0.00 0.04 0.00 95 1011.3
20260507115343 42 307 1.0 2.0 0.00 0.04 0.00 95 1011.3
20260507114843 42 307 1.0 3.0 0.00 0.04 0.00 95 1011.1
20260507114344 42 307 1.0 3.0 0.00 0.04 0.00 95 1011.1
20260507113341 42 307 0.0 1.0 0.00 0.04 0.00 95 1010.9
20260507112841 42 307 0.0 0.0 0.00 0.04 0.00 95 1011.0
20260507112342 42 307 0.0 1.0 0.00 0.04 0.00 95 1011.0
20260507111339 42 307 0.0 1.0 0.00 0.04 0.00 95 1011.0
20260507110339 42 307 0.0 2.0 0.00 0.04 0.00 95 1011.1
20260507105838 42 307 0.0 2.0 0.00 0.04 0.00 95 1011.2
20260507105339 42 307 0.0 1.0 0.00 0.04 0.00 95 1011.0
20260507104839 42 307 0.0 1.0 0.00 0.04 0.00 95 1011.0
20260507103339 42 307 0.0 1.0 0.00 0.04 0.00 95 1010.9
20260507102839 42 307 0.0 1.0 0.00 0.04 0.00 95 1010.9
20260507102338 42 307 0.0 2.0 0.00 0.04 0.00 95 1010.9
20260507101837 42 307 0.0 2.0 0.00 0.04 0.00 95 1010.9
20260507101337 42 307 0.0 2.0 0.00 0.04 0.00 95 1010.7
20260507100838 42 307 1.0 1.0 0.00 0.04 0.00 95 1010.7
20260507100337 42 307 0.0 1.0 0.00 0.04 0.00 95 1010.6
20260507095838 42 307 1.0 3.0 0.00 0.04 0.00 95 1010.6
20260507095337 42 307 1.0 3.0 0.00 0.04 0.00 95 1010.5
20260507094837 42 307 0.0 3.0 0.00 0.04 0.00 95 1010.6
20260507094337 42 307 0.0 1.0 0.00 0.04 0.00 95 1010.5
20260507093837 42 307 0.0 2.0 0.00 0.04 0.00 95 1010.6
20260507093336 42 307 0.0 2.0 0.00 0.04 0.00 95 1010.9
20260507092834 42 307 0.0 2.0 0.00 0.04 0.00 95 1011.1
20260507092336 42 307 1.0 2.0 0.00 0.04 0.00 95 1011.0
20260507091835 42 307 0.0 2.0 0.00 0.04 0.00 95 1010.9
20260507091335 42 307 0.0 1.0 0.00 0.04 0.00 95 1010.7
20260507090833 42 307 0.0 1.0 0.00 0.04 0.00 95 1010.9
20260507090331 42 307 0.0 1.0 0.00 0.04 0.00 95 1010.9
20260507085829 42 307 0.0 2.0 0.00 0.04 0.00 95 1010.7
20260507084829 42 307 1.0 2.0 0.00 0.04 0.00 95 1010.7
20260507084327 42 307 1.0 2.0 0.00 0.04 0.00 95 1010.9
20260507083827 42 307 0.0 1.0 0.00 0.04 0.00 95 1011.0
20260507083327 42 307 0.0 2.0 0.00 0.04 0.00 95 1011.1
20260507082827 42 307 1.0 2.0 0.00 0.04 0.00 95 1011.1
20260507082327 42 307 1.0 2.0 0.00 0.04 0.00 95 1011.1
20260507081827 42 307 1.0 3.0 0.00 0.04 0.00 95 1011.2
20260507081328 42 307 0.0 3.0 0.00 0.04 0.00 95 1011.1
20260507075825 42 307 0.0 0.0 0.00 0.04 0.00 95 1011.2
20260507074822 42 307 0.0 1.0 0.00 0.04 0.00 95 1011.2
20260507074322 42 307 0.0 1.0 0.00 0.04 0.00 95 1011.0
20260507073822 42 307 0.0 0.0 0.00 0.04 0.00 95 1010.9
20260507073321 42 307 0.0 0.0 0.00 0.04 0.00 95 1010.9
20260507072821 42 307 0.0 0.0 0.00 0.04 0.00 95 1010.9
20260507072320 42 307 0.0 1.0 0.00 0.04 0.00 95 1010.9
20260507071820 42 307 0.0 1.0 0.00 0.04 0.00 95 1010.9
20260507071321 42 307 0.0 1.0 0.00 0.04 0.00 95 1010.7
20260507070320 42 307 0.0 1.0 0.00 0.04 0.00 95 1010.5
20260507065820 42 307 0.0 1.0 0.00 0.04 0.00 95 1010.5
20260507064821 42 307 0.0 0.0 0.00 0.04 0.00 95 1010.7
20260507064321 42 307 0.0 0.0 0.00 0.04 0.00 95 1010.6
20260507063322 42 307 0.0 1.0 0.00 0.04 0.00 95 1010.6
20260507062821 42 307 0.0 2.0 0.00 0.04 0.00 95 1010.6
20260507062322 42 307 0.0 2.0 0.00 0.04 0.00 95 1010.7
20260507061821 42 307 0.0 2.0 0.00 0.04 0.00 95 1010.7
20260507061321 42 307 1.0 3.0 0.00 0.04 0.00 95 1010.9
20260507060319 42 307 0.0 2.0 0.00 0.04 0.00 94 1011.1
20260507055818 42 307 0.0 1.0 0.00 0.04 0.00 94 1010.7
20260507055318 42 307 0.0 2.0 0.00 0.04 0.00 94 1010.9
20260507054816 42 307 1.0 2.0 0.00 0.04 0.00 94 1011.0
20260507054316 42 307 1.0 2.0 0.00 0.04 0.00 94 1011.1
20260507053816 42 307 0.0 2.0 0.00 0.04 0.00 94 1011.1
20260507053318 42 307 0.0 1.0 0.00 0.04 0.00 94 1011.4
20260507052818 42 307 0.0 1.0 0.00 0.04 0.00 94 1011.2
20260507052315 42 307 1.0 3.0 0.00 0.04 0.00 94 1010.9
20260507051814 42 307 1.0 3.0 0.00 0.04 0.00 94 1011.0
20260507051315 42 307 1.0 3.0 0.00 0.04 0.00 95 1011.2
20260507050815 42 307 0.0 2.0 0.00 0.04 0.00 94 1011.6
20260507050315 43 307 0.0 2.0 0.00 0.04 0.00 94 1011.5
20260507045814 43 307 1.0 3.0 0.00 0.04 0.00 94 1011.2
20260507045314 43 307 1.0 3.0 0.00 0.05 0.00 94 1011.2
20260507044814 43 298 1.0 3.0 0.00 0.05 0.00 94 1011.5
20260507044315 43 301 0.0 1.0 0.00 0.05 0.00 94 1011.7
20260507042812 43 301 0.0 2.0 0.00 0.06 0.00 94 1011.4
20260507042312 43 301 0.0 2.0 0.00 0.07 0.00 94 1011.5
20260507041812 43 301 0.0 1.0 0.00 0.07 0.00 94 1011.6
20260507041312 43 301 0.0 2.0 0.00 0.07 0.00 94 1011.6
20260507040812 44 301 1.0 2.0 0.00 0.08 0.00 94 1011.5
20260507040311 44 301 0.0 2.0 0.00 0.08 0.00 94 1011.6
20260507035809 44 301 0.0 1.0 0.00 0.09 0.08 94 1011.5
20260507034810 44 301 0.0 2.0 0.00 0.09 0.08 94 1011.5
20260507034309 44 301 0.0 1.0 0.00 0.10 0.08 94 1011.6
20260507033809 44 301 0.0 2.0 0.00 0.10 0.08 94 1011.7
20260507032810 44 301 1.0 3.0 0.00 0.10 0.08 94 1011.8
20260507032309 44 300 1.0 2.0 0.00 0.11 0.08 94 1011.9
20260507031811 44 300 1.0 2.0 0.00 0.11 0.08 94 1011.9
20260507031310 44 300 1.0 2.0 0.00 0.11 0.08 94 1011.8
20260507030809 44 300 0.0 2.0 0.00 0.11 0.08 94 1011.8
20260507030309 44 300 0.0 2.0 0.00 0.11 0.08 94 1011.9
20260507025310 44 300 1.0 2.0 0.00 0.11 0.08 94 1011.8
20260507024310 44 300 0.0 2.0 0.00 0.11 0.08 94 1011.9
20260507023810 44 300 1.0 2.0 0.00 0.11 0.08 94 1011.9
20260507023309 44 300 1.0 2.0 0.00 0.11 0.08 94 1011.9
20260507022810 44 300 0.0 2.0 0.00 0.11 0.08 94 1011.9
20260507022309 44 300 0.0 1.0 0.00 0.11 0.08 94 1011.8
20260507021810 44 300 0.0 2.0 0.00 0.11 0.08 94 1012.0
20260507021309 44 300 0.0 2.0 0.00 0.11 0.08 94 1011.9
20260507020309 44 300 0.0 1.0 0.00 0.11 0.08 94 1011.9
20260507015809 44 300 0.0 2.0 0.00 0.11 0.08 94 1011.8
20260507015309 44 300 1.0 2.0 0.00 0.11 0.08 94 1011.8
20260507014807 44 300 0.0 3.0 0.00 0.11 0.08 94 1011.9
20260507013305 45 300 1.0 3.0 0.00 0.11 0.08 94 1012.2
20260507011305 45 274 0.0 2.0 0.00 0.11 0.08 94 1011.9
20260507010805 45 274 1.0 2.0 0.00 0.11 0.08 94 1011.8
20260507010305 45 274 1.0 2.0 0.00 0.11 0.08 94 1011.7
20260507005306 45 274 1.0 2.0 0.00 0.11 0.08 94 1011.6
20260507004805 45 274 1.0 2.0 0.00 0.11 0.08 94 1011.5
20260507004305 45 274 1.0 2.0 0.00 0.11 0.08 94 1011.5
20260507003305 45 274 1.0 3.0 0.00 0.11 0.08 94 1011.2
20260507002805 45 274 1.0 3.0 0.00 0.11 0.08 94 1011.3
20260507002306 45 273 1.0 4.0 0.00 0.11 0.08 94 1011.4
20260507001805 45 273 1.0 4.0 0.00 0.11 0.08 94 1011.0
20260507001304 45 292 1.0 4.0 0.00 0.11 0.08 94 1010.7
20260507000803 45 265 1.0 4.0 0.00 0.11 0.08 94 1010.9
20260507000303 45 292 1.0 3.0 0.00 0.11 0.08 94 1010.6
20260506235306 45 292 0.0 2.0 0.00 0.11 0.08 94 1010.1
20260506234803 45 292 1.0 2.0 0.00 0.11 0.08 94 1010.3
20260506234304 45 292 1.0 2.0 0.00 0.11 0.08 94 1010.0
20260506233303 46 292 0.0 2.0 0.00 0.11 0.08 94 1010.2
20260506232804 46 292 0.0 1.0 0.00 0.11 0.08 94 1010.3
20260506232306 46 292 1.0 3.0 0.00 0.11 0.08 94 1010.2
20260506231802 46 292 1.0 3.0 0.00 0.11 0.08 94 1010.2
20260506231301 46 292 1.0 3.0 0.00 0.11 0.08 94 1010.2
20260506230800 46 292 1.0 3.0 0.00 0.11 0.08 94 1010.1
20260506230301 46 292 1.0 3.0 0.00 0.11 0.08 94 1010.1
20260506225801 46 292 1.0 2.0 0.00 0.11 0.08 94 1010.1
20260506225301 46 292 1.0 3.0 0.00 0.11 0.08 94 1009.9
20260506224801 46 292 1.0 3.0 0.00 0.11 0.08 94 1010.0
20260506224300 46 292 1.0 3.0 0.00 0.11 0.08 94 1010.0
20260506223800 46 292 1.0 3.0 0.00 0.11 0.08 94 1010.1
20260506223259 46 300 1.0 3.0 0.00 0.11 0.08 94 1010.0
20260506222759 46 258 1.0 3.0 0.00 0.11 0.08 94 1010.0
20260506222256 46 244 0.0 2.0 0.00 0.11 0.08 94 1010.0
20260506221758 46 244 1.0 2.0 0.00 0.11 0.08 94 1009.8
20260506221259 46 244 1.0 2.0 0.00 0.11 0.08 94 1009.7
20260506220753 46 244 2.0 4.0 0.00 0.11 0.08 94 1009.8
20260506220253 46 244 2.0 4.0 0.00 0.11 0.08 94 1009.8
20260506215754 46 276 2.0 4.0 0.00 0.11 0.08 94 1009.8
20260506215253 46 256 2.0 4.0 0.00 0.11 0.08 94 1009.8
20260506214750 46 254 1.0 4.0 0.00 0.11 0.08 94 1009.7
20260506214252 46 246 1.0 4.0 0.00 0.11 0.08 94 1009.7
20260506213751 46 246 1.0 4.0 0.00 0.11 0.08 94 1009.7
20260506213251 46 259 1.0 3.0 0.00 0.11 0.08 94 1009.6
20260506212750 47 259 0.0 3.0 0.00 0.11 0.08 94 1009.6
20260506212250 47 259 1.0 2.0 0.00 0.11 0.08 94 1009.7
20260506211250 46 259 2.0 4.0 0.00 0.11 0.08 94 1009.8
20260506210751 47 266 1.0 3.0 0.00 0.11 0.08 94 1009.7
20260506210251 47 266 1.0 3.0 0.00 0.11 0.08 94 1009.7
20260506205752 47 266 1.0 3.0 0.00 0.11 0.08 94 1009.6
20260506205251 46 266 2.0 3.0 0.00 0.11 0.08 94 1009.6
20260506204750 46 257 2.0 4.0 0.00 0.11 0.08 94 1009.6
20260506204250 46 270 2.0 4.0 0.00 0.11 0.08 94 1009.7
20260506203752 46 259 1.0 4.0 0.00 0.11 0.08 94 1009.6
20260506202250 47 273 1.0 3.0 0.00 0.11 0.08 94 1009.5
20260506201751 47 273 2.0 4.0 0.00 0.11 0.08 94 1009.6
20260506201251 47 272 2.0 4.0 0.00 0.11 0.08 93 1009.5
20260506200750 47 287 1.0 3.0 0.00 0.11 0.08 93 1009.6
20260506195752 47 299 1.0 3.0 0.00 0.12 0.08 94 1009.5
20260506195250 47 299 1.0 3.0 0.00 0.13 0.08 94 1009.5
20260506194750 47 265 1.0 3.0 0.00 0.14 0.08 94 1009.6
20260506194250 47 263 1.0 4.0 0.00 0.14 0.08 93 1009.6
20260506193750 47 267 1.0 4.0 0.00 0.14 0.08 93 1009.7
20260506193250 47 308 1.0 3.0 0.00 0.14 0.08 94 1009.8
20260506192751 47 342 1.0 3.0 0.00 0.15 0.08 93 1009.7
20260506192250 47 342 1.0 4.0 0.00 0.15 0.08 94 1009.7